Location: Sperry Observatory
(40.6664°N, 74.3236°W)
Time: 15:08:56
(UTC-04:00)

Amateur Radio Satellites - All Passes

Search period start: 01 September 2014 14:38
Search period end: 02 September 2014 14:38
Location: Sperry Observatory, 40.6664°N, 74.3236°W

Satellite Date Start Highest point End Downlink Frequencies (MHz)
Time Altitude Azimuth
AO-Echo 01 Sep 14:40:15 14:45:10 53° 260° (W) 14:49:57 ?
Oscar 10/S400 01 Sep 14:46:26 14:55:39 13° 148° (SSE) 15:03:34 145.825 - 145.975 CW/USB, Beacon 145.810 USB
RS-15 01 Sep 14:49:32 14:59:08 32° 34° (NE) 15:08:57 29.354 - 29.394 USB, Beacon 29.352 USB
MaSat-1 01 Sep 14:53:52 14:56:41 15° 314° (NW) 14:59:31 437.345 MHz
UOSAT-12 01 Sep 14:59:00 15:03:22 38° 245° (WSW) 15:07:39 437.025 FM, 437.400 FM
ITAMSAT 1 01 Sep 15:03:54 15:08:38 36° 262° (W) 15:13:24 435.822 SSB
Oscar 16 01 Sep 15:04:36 15:07:43 16° 269° (W) 15:10:50 437.025 USB, Beacon 2401.1428
Uribyol 2 01 Sep 15:13:50 15:18:13 28° 264° (W) 15:22:37 436.500 FM
TMSAT-1 01 Sep 15:21:54 15:27:11 77° 257° (WSW) 15:32:30 436.925 FM
ISS 01 Sep 15:29:35 15:32:27 26° 24° (NNE) 15:35:19 145.800 FM
Uosat F 01 Sep 15:33:02 15:37:12 27° 66° (ENE) 15:41:22 435.120 FM
AO-27 01 Sep 15:34:50 15:38:27 19° 267° (W) 15:42:06 436.795 MHz FM
AO-7 01 Sep 15:38:19 15:46:17 52° 64° (ENE) 15:54:14 29.400 - 29.500 MHz
Sapphire 01 Sep 15:38:37 15:42:04 18° 105° (ESE) 15:45:32 437.095 MHz 1200 baud AX-25 AFSK
JAS-1B 01 Sep 15:44:53 15:53:28 35° 265° (W) 16:01:23 435.800 - 435.900 CW/SSB
PCSat 01 Sep 16:06:14 16:11:03 34° 110° (ESE) 16:15:53 145.825 MHz
Gurwin Techsat 1B 01 Sep 16:13:19 16:17:06 20° 268° (W) 16:20:54 435.225 FM
OPAL 01 Sep 17:01:09 17:05:56 36° 99° (E) 17:10:41 ?
RS-15 01 Sep 17:01:50 17:12:59 88° 240° (WSW) 17:24:35 29.354 - 29.394 USB, Beacon 29.352 USB
Hamsat 01 Sep 17:02:25 17:05:19 18° 66° (ENE) 17:08:15 145.90 MHz
ISS 01 Sep 17:06:06 17:09:19 47° 222° (SW) 17:12:31 145.800 FM
Uosat F 01 Sep 17:11:18 17:15:50 34° 262° (W) 17:20:24 435.120 FM
Sapphire 01 Sep 17:19:35 17:24:56 63° 302° (WNW) 17:30:20 437.095 MHz 1200 baud AX-25 AFSK
AO-7 01 Sep 17:31:48 17:39:15 36° 262° (W) 17:46:44 29.400 - 29.500 MHz
JAS-2 01 Sep 17:35:04 17:40:48 46° 71° (ENE) 17:46:00 435.800 - 435.900 CW/SSB, 435.910 FM
PCSat 01 Sep 17:49:29 17:54:24 35° 308° (NW) 17:59:22 145.825 MHz
SO-67 01 Sep 18:10:57 18:11:38 10° 65° (ENE) 18:12:18 435.3500 MHz FM
Hamsat 01 Sep 18:36:52 18:40:57 41° 262° (W) 18:45:06 145.90 MHz
OPAL 01 Sep 18:40:13 18:44:40 29° 296° (WNW) 18:49:05 ?
STRAND 1 01 Sep 18:48:45 18:52:30 20° 93° (E) 18:56:13 ?
HO-68 01 Sep 19:04:42 19:07:37 13° 50° (NE) 19:10:31 435.675 MHz FM
Sapphire 01 Sep 19:07:23 19:09:28 12° 322° (NW) 19:11:34 437.095 MHz 1200 baud AX-25 AFSK
RS-15 01 Sep 19:16:15 19:23:48 21° 260° (W) 19:31:35 29.354 - 29.394 USB, Beacon 29.352 USB
JAS-2 01 Sep 19:21:15 19:26:02 24° 265° (W) 19:30:29 435.800 - 435.900 CW/SSB, 435.910 FM
SO-67 01 Sep 19:40:55 19:44:15 45° 261° (W) 19:47:36 435.3500 MHz FM
STRAND 1 01 Sep 20:27:01 20:31:54 47° 289° (WNW) 20:36:46 ?
UKube-1 01 Sep 20:33:55 20:36:58 19° 65° (ENE) 20:40:01 145.840 MHz, 145.915 MHz
Oscar 11 01 Sep 20:38:54 20:40:57 13° 63° (ENE) 20:43:01 145.825 FM, Beacon 2401.500 USB
HO-68 01 Sep 20:46:57 20:53:59 66° 70° (ENE) 21:01:03 435.675 MHz FM
Saudisat 1A 01 Sep 21:07:47 21:09:45 13° 108° (ESE) 21:11:44 436.775 MHz
FUNcube-1 01 Sep 21:11:28 21:12:32 11° 62° (ENE) 21:13:36 145.950 - 145.970 MHz USB
MaSat-1 01 Sep 21:32:53 21:36:18 20° 50° (NE) 21:39:24 437.345 MHz
KITSAT 1 01 Sep 21:36:29 21:40:30 15° 99° (E) 21:44:30 435.175 FM
AO-40 01 Sep 22:03:35 04:25:25 42° 179° (S) 06:49:25 Beacon 2401.320
UKube-1 01 Sep 22:08:49 22:12:53 39° 261° (W) 22:16:58 145.840 MHz, 145.915 MHz
Oscar 11 01 Sep 22:12:21 22:16:38 59° 259° (W) 22:20:57 145.825 FM, Beacon 2401.500 USB
HO-68 01 Sep 22:36:49 22:42:11 23° 267° (W) 22:47:36 435.675 MHz FM
FUNcube-1 01 Sep 22:44:08 22:48:18 69° 259° (WSW) 22:52:35 145.950 - 145.970 MHz USB
Saudisat 1A 01 Sep 22:44:25 22:48:47 65° 305° (NW) 22:53:11 436.775 MHz
MaSat-1 01 Sep 23:09:23 23:13:33 40° 252° (WSW) 23:17:09 437.345 MHz
KITSAT 1 01 Sep 23:26:31 23:34:35 80° 117° (ESE) 23:42:42 435.175 FM
Sapphire 02 Sep 00:25:39 00:29:09 17° 43° (NE) 00:32:38 437.095 MHz 1200 baud AX-25 AFSK
Saudisat 1A 02 Sep 00:28:16 00:29:14 11° 324° (NW) 00:30:13 436.775 MHz
PCSat 02 Sep 00:54:12 00:58:52 28° 50° (NE) 01:03:29 145.825 MHz
KITSAT 1 02 Sep 01:24:07 01:30:51 28° 319° (NW) 01:37:37 435.175 FM
Oscar 16 02 Sep 01:35:43 01:39:42 22° 93° (E) 01:43:39 437.025 USB, Beacon 2401.1428
JAS-1B 02 Sep 01:45:08 01:46:20 11° 83° (E) 01:47:31 435.800 - 435.900 CW/SSB
Uribyol 2 02 Sep 01:49:01 01:51:01 12° 90° (E) 01:53:01 436.500 FM
Sapphire 02 Sep 02:07:50 02:13:18 85° 242° (WSW) 02:18:43 437.095 MHz 1200 baud AX-25 AFSK
AO-27 02 Sep 02:08:00 02:11:34 19° 93° (E) 02:15:07 436.795 MHz FM
PCSat 02 Sep 02:37:18 02:42:26 45° 248° (WSW) 02:47:33 145.825 MHz
Oscar 19 02 Sep 02:38:45 02:43:59 84° 104° (ESE) 02:49:10 437.125 CW, 437.150 USB
AO-Echo 02 Sep 02:47:41 02:52:14 48° 100° (E) 02:56:47 ?
Gurwin Techsat 1B 02 Sep 02:49:03 02:53:00 21° 93° (E) 02:56:56 435.225 FM
Oscar 16 02 Sep 03:14:18 03:19:14 45° 290° (WNW) 03:24:08 437.025 USB, Beacon 2401.1428
ITAMSAT 1 02 Sep 03:16:29 03:21:41 82° 103° (ESE) 03:26:53 435.822 SSB
SO-50 02 Sep 03:23:24 03:27:50 75° 120° (ESE) 03:32:25 436.795 FM
Oscar 10/S400 02 Sep 03:24:04 04:36:55 35° 236° (SW) 08:55:27 145.825 - 145.975 CW/USB, Beacon 145.810 USB
Uribyol 2 02 Sep 03:25:50 03:31:03 78° 286° (WNW) 03:36:15 436.500 FM
KITSAT 1 02 Sep 03:27:39 03:29:39 11° 348° (NNW) 03:31:40 435.175 FM
JAS-1B 02 Sep 03:31:38 03:38:19 89° 104° (ESE) 03:44:07 435.800 - 435.900 CW/SSB
TMSAT-1 02 Sep 03:38:13 03:43:16 44° 99° (E) 03:48:18 436.925 FM
AO-7 02 Sep 03:42:34 03:46:47 15° 89° (E) 03:50:59 29.400 - 29.500 MHz
AO-27 02 Sep 03:46:20 03:51:22 52° 289° (WNW) 03:56:24 436.795 MHz FM
Sapphire 02 Sep 03:54:58 03:55:50 10° 259° (W) 03:56:41 437.095 MHz 1200 baud AX-25 AFSK
OPAL 02 Sep 04:15:38 04:20:37 62° 71° (ENE) 04:25:43 ?
Oscar 19 02 Sep 04:20:18 04:22:35 13° 301° (WNW) 04:24:51 437.125 CW, 437.150 USB
AO-Echo 02 Sep 04:27:31 04:30:39 18° 296° (WNW) 04:33:47 ?
Gurwin Techsat 1B 02 Sep 04:28:07 04:33:12 48° 289° (WNW) 04:38:16 435.225 FM
ITAMSAT 1 02 Sep 04:58:06 05:00:29 13° 301° (WNW) 05:02:51 435.822 SSB
SO-50 02 Sep 05:06:07 05:08:57 16° 320° (NW) 05:11:50 436.795 FM
Uribyol 2 02 Sep 05:09:06 05:09:38 10° 303° (WNW) 05:10:10 436.500 FM
UOSAT-12 02 Sep 05:09:15 05:13:49 70° 120° (ESE) 05:18:30 437.025 FM, 437.400 FM
Uosat F 02 Sep 05:18:40 05:23:41 74° 103° (ESE) 05:28:41 435.120 FM
TMSAT-1 02 Sep 05:18:45 05:22:54 24° 295° (WNW) 05:27:03 436.925 FM
RS-15 02 Sep 05:22:10 05:25:13 11° 95° (E) 05:28:13 29.354 - 29.394 USB, Beacon 29.352 USB
JAS-1B 02 Sep 05:24:25 05:27:45 15° 308° (NW) 05:30:54 435.800 - 435.900 CW/SSB
KITSAT 1 02 Sep 05:26:06 05:29:37 13° 20° (NNE) 05:33:07 435.175 FM
AO-7 02 Sep 05:32:24 05:40:45 81° 107° (ESE) 05:49:01 29.400 - 29.500 MHz
Saudisat 1A 02 Sep 05:33:24 05:35:37 14° 39° (NE) 05:37:50 436.775 MHz
OPAL 02 Sep 05:56:56 05:59:55 16° 267° (W) 06:02:56 ?
STRAND 1 02 Sep 06:04:20 06:08:40 29° 67° (ENE) 06:13:01 ?
Hamsat 02 Sep 06:22:57 06:26:56 34° 97° (E) 06:30:51 145.90 MHz
JAS-2 02 Sep 06:28:18 06:33:16 39° 99° (E) 06:38:38 435.800 - 435.900 CW/SSB, 435.910 FM
UOSAT-12 02 Sep 06:51:19 06:54:28 18° 319° (NW) 06:57:41 437.025 FM, 437.400 FM
Uosat F 02 Sep 06:59:21 07:01:51 14° 300° (WNW) 07:04:21 435.120 FM
SO-67 02 Sep 07:06:33 07:07:56 12° 92° (E) 07:09:18 435.3500 MHz FM
Saudisat 1A 02 Sep 07:11:25 07:15:51 90° 57° (ENE) 07:20:15 436.775 MHz
KITSAT 1 02 Sep 07:20:21 07:27:47 38° 47° (NE) 07:35:10 435.175 FM
RS-15 02 Sep 07:24:20 07:35:13 65° 115° (ESE) 07:45:55 29.354 - 29.394 USB, Beacon 29.352 USB
AO-7 02 Sep 07:26:27 07:32:39 24° 306° (NW) 07:38:50 29.400 - 29.500 MHz
STRAND 1 02 Sep 07:43:12 07:47:45 33° 263° (W) 07:52:20 ?
Hamsat 02 Sep 07:59:25 08:02:39 21° 293° (WNW) 08:05:52 145.90 MHz
JAS-2 02 Sep 08:13:55 08:18:15 26° 293° (WNW) 08:22:51 435.800 - 435.900 CW/SSB, 435.910 FM
HO-68 02 Sep 08:19:35 08:20:40 10° 87° (E) 08:21:44 435.675 MHz FM
SO-67 02 Sep 08:37:56 08:41:08 35° 287° (WNW) 08:44:18 435.3500 MHz FM
KITSAT 1 02 Sep 09:15:39 09:23:27 54° 247° (WSW) 09:31:12 435.175 FM
RS-15 02 Sep 09:37:59 09:48:09 41° 319° (NW) 09:58:20 29.354 - 29.394 USB, Beacon 29.352 USB
ISS 02 Sep 09:48:03 09:51:20 66° 141° (SE) 09:54:39 145.800 FM
UKube-1 02 Sep 09:57:16 10:01:14 34° 98° (E) 10:05:11 145.840 MHz, 145.915 MHz
Oscar 11 02 Sep 10:00:46 10:04:24 25° 95° (E) 10:08:00 145.825 FM, Beacon 2401.500 USB
HO-68 02 Sep 10:02:21 10:09:31 71° 104° (ESE) 10:16:39 435.675 MHz FM
SO-50 02 Sep 10:16:50 10:18:26 11° 35° (NE) 10:20:02 436.795 FM
FUNcube-1 02 Sep 10:33:50 10:37:33 24° 95° (E) 10:41:17 145.950 - 145.970 MHz USB
ISS 02 Sep 11:25:39 11:28:20 22° 339° (NNW) 11:31:01 145.800 FM
PANSAT 02 Sep 11:32:39 11:34:13 12° 172° (S) 11:35:48 not established
UKube-1 02 Sep 11:33:56 11:37:14 22° 294° (WNW) 11:40:31 145.840 MHz, 145.915 MHz
Oscar 11 02 Sep 11:36:47 11:40:32 28° 291° (WNW) 11:44:16 145.825 FM, Beacon 2401.500 USB
HO-68 02 Sep 11:51:11 11:56:34 24° 302° (WNW) 12:01:57 435.675 MHz FM
SO-50 02 Sep 11:55:11 11:59:57 62° 55° (NE) 12:04:45 436.795 FM
RS-15 02 Sep 11:57:16 12:04:42 20° 352° (N) 12:12:12 29.354 - 29.394 USB, Beacon 29.352 USB
UOSAT-12 02 Sep 12:01:52 12:02:41 10° 34° (NNE) 12:03:30 437.025 FM, 437.400 FM
FUNcube-1 02 Sep 12:09:53 12:13:57 33° 290° (WNW) 12:18:03 145.950 - 145.970 MHz USB
Oscar 19 02 Sep 12:18:52 12:21:45 15° 61° (ENE) 12:24:38 437.125 CW, 437.150 USB
JAS-1B 02 Sep 12:26:30 12:32:25 19° 56° (NE) 12:37:54 435.800 - 435.900 CW/SSB
Oscar 16 02 Sep 12:52:17 12:56:47 31° 67° (ENE) 13:01:19 437.025 USB, Beacon 2401.1428
MaSat-1 02 Sep 12:55:21 13:00:16 84° 114° (ESE) 13:05:27 437.345 MHz
ITAMSAT 1 02 Sep 12:57:36 13:00:33 16° 61° (ENE) 13:03:29 435.822 SSB
ISS 02 Sep 13:04:28 13:06:01 13° 359° (N) 13:07:33 145.800 FM
Uribyol 2 02 Sep 13:06:02 13:09:38 20° 63° (ENE) 13:13:15 436.500 FM
PANSAT 02 Sep 13:11:54 13:13:39 13° 186° (S) 13:15:25 not established
AO-27 02 Sep 13:25:43 13:30:04 28° 66° (ENE) 13:34:26 436.795 MHz FM
SO-50 02 Sep 13:37:08 13:40:03 16° 251° (WSW) 13:42:58 436.795 FM
UOSAT-12 02 Sep 13:39:14 13:43:54 55° 54° (NE) 13:48:28 437.025 FM, 437.400 FM
Oscar 19 02 Sep 13:55:19 14:00:28 71° 258° (WSW) 14:05:40 437.125 CW, 437.150 USB
AO-Echo 02 Sep 14:00:09 14:05:05 62° 74° (ENE) 14:09:53 ?
Gurwin Techsat 1B 02 Sep 14:09:42 14:14:21 32° 68° (ENE) 14:19:02 435.225 FM
JAS-1B 02 Sep 14:12:06 14:21:49 77° 73° (ENE) 14:30:26 435.800 - 435.900 CW/SSB
RS-15 02 Sep 14:13:23 14:22:22 27° 28° (NNE) 14:31:32 29.354 - 29.394 USB, Beacon 29.352 USB
